Terminal Aerodrome Forecast
Issued by NWS Charleston, WV

Current Version | Previous Version | Graphics & Text | Print | Product List | Glossary On
Versions: 1 2 3 4 5 6 7 8 9 10 11 12 13 14 15 16 17 18 19 20 21 22 23 24 25 26 27 28 29 30 31
000
FTUS41 KRLX 221300 AAA
TAFBKW
TAF AMD
KBKW 221307Z 2213/2312 33007KT 4SM -RA BR OVC002
      TEMPO 2213/2214 1SM -RA BR
     FM221400 32008KT 4SM BR OVC005
     FM221500 32009KT P6SM OVC008
     FM221700 32009KT P6SM OVC015
     FM230300 32008KT P6SM BKN010
     FM230700 32008KT P6SM BKN015=

USA.gov is the U.S. government's official web portal to all federal, state and local government web resources and services.